Location: Utrecht
(52.0907°N, 5.1214°E)
Time: 14:17:24
(UTC+02:00)

NANOSAT C BR1 - Visible Passes

Search period start: 28 June 2022 00:00
Search period end: 08 July 2022 00:00
Orbit: 583 x 601 km, 98.0° (Epoch: 27 June)

Date Brightness Start Highest point End Pass type
(mag) Time Alt. Az. Time Alt. Az. Time Alt. Az.
28 Jun ? 02:46:31 10° NE 02:49:22 17° E 02:52:12 10° SE visible
28 Jun ? 04:21:08 10° N 04:25:18 61° WNW 04:29:27 10° SSW visible
29 Jun ? 02:54:58 10° NE 02:58:11 21° E 03:01:23 10° SE visible
29 Jun ? 04:29:56 10° N 04:34:01 51° WNW 04:38:05 10° SW visible
30 Jun ? 03:03:31 10° NE 03:07:00 25° E 03:10:28 10° SSE visible
01 Jul ? 03:12:05 10° NNE 03:15:48 29° E 03:19:30 10° SSE visible
02 Jul ? 03:20:42 10° NNE 03:24:35 35° E 03:28:28 10° SSE visible
03 Jul ? 03:29:20 10° NNE 03:33:21 42° E 03:37:22 10° S visible
04 Jul ? 03:37:59 10° NNE 03:42:07 51° E 03:46:12 10° S visible
05 Jul ? 03:46:40 10° NNE 03:50:51 62° ESE 03:55:00 10° S visible
06 Jul ? 03:55:21 10° NNE 03:59:35 75° ESE 04:03:47 10° S visible
07 Jul ? 02:30:27 10° ENE 02:32:08 12° E 02:33:48 10° ESE visible
07 Jul ? 04:04:03 10° NNE 04:08:18 90° NNE 04:12:32 10° SSW visible
